| time (UTC) | temp C | wind direction | speed KPH | gust KPH | rain 1hr cm | rain 24hr cm | rain mn cm | humidity % | barometer mb |
| 20260503010050 | 5 | 238 | 8.0 | 0.0 | 0.00 | 0.00 | 0.00 | 61 | 989.5 |
| 20260503004525 | 5 | 240 | 8.0 | 0.0 | 0.00 | 0.00 | 0.00 | 50 | 990.2 |
| 20260503003039 | 6 | 234 | 6.4 | 0.0 | 0.00 | 0.00 | 0.00 | 50 | 990.4 |
| 20260503001525 | 6 | 239 | 4.8 | 0.0 | 0.00 | 0.00 | 0.00 | 50 | 990.4 |
| 20260503000050 | 7 | 257 | 4.8 | 0.0 | 0.00 | 0.00 | 0.00 | 50 | 990.4 |
| 20260502234526 | 7 | 277 | 8.0 | 0.0 | 0.00 | 0.00 | 0.00 | 40 | 990.2 |
| 20260502233038 | 7 | 274 | 9.7 | 0.0 | 0.00 | 0.00 | 0.00 | 41 | 990.3 |
| 20260502231526 | 7 | 275 | 12.9 | 0.0 | 0.00 | 0.00 | 0.00 | 41 | 990.3 |
| 20260502230052 | 7 | 276 | 14.5 | 0.0 | 0.00 | 0.00 | 0.00 | 41 | 990.3 |
| 20260502224525 | 8 | 275 | 16.1 | 0.0 | 0.00 | 0.00 | 0.00 | 42 | 990.7 |
| 20260502223044 | 8 | 276 | 16.1 | 0.0 | 0.00 | 0.00 | 0.00 | 40 | 991.4 |
| 20260502221526 | 8 | 276 | 17.7 | 0.0 | 0.00 | 0.00 | 0.00 | 40 | 991.4 |
| 20260502220050 | 8 | 275 | 17.7 | 0.0 | 0.00 | 0.00 | 0.00 | 40 | 991.4 |
| 20260502214526 | 8 | 277 | 19.3 | 0.0 | 0.00 | 0.00 | 0.00 | 42 | 991.5 |
| 20260502213044 | 8 | 270 | 16.1 | 0.0 | 0.00 | 0.00 | 0.00 | 43 | 991.2 |
| 20260502211526 | 8 | 266 | 16.1 | 0.0 | 0.00 | 0.00 | 0.00 | 43 | 991.1 |
| 20260502210054 | 8 | 267 | 17.7 | 0.0 | 0.00 | 0.00 | 0.00 | 43 | 991.1 |
| 20260502204525 | 8 | 263 | 17.7 | 0.0 | 0.00 | 0.00 | 0.00 | 38 | 991.6 |
| 20260502203043 | 8 | 264 | 17.7 | 0.0 | 0.00 | 0.00 | 0.00 | 37 | 992.0 |
| 20260502201525 | 8 | 269 | 17.7 | 0.0 | 0.00 | 0.00 | 0.00 | 37 | 992.0 |
| 20260502200050 | 8 | 274 | 17.7 | 0.0 | 0.00 | 0.00 | 0.00 | 37 | 992.0 |
| 20260502194525 | 8 | 279 | 17.7 | 0.0 | 0.00 | 0.00 | 0.00 | 39 | 992.3 |
| 20260502193039 | 8 | 279 | 17.7 | 0.0 | 0.00 | 0.00 | 0.00 | 39 | 992.3 |
| 20260502191526 | 8 | 276 | 19.3 | 0.0 | 0.00 | 0.00 | 0.00 | 39 | 992.3 |
| 20260502190051 | 8 | 275 | 17.7 | 0.0 | 0.00 | 0.00 | 0.00 | 39 | 992.3 |
| 20260502184525 | 7 | 278 | 17.7 | 0.0 | 0.00 | 0.00 | 0.00 | 43 | 992.1 |
| 20260502183045 | 7 | 285 | 17.7 | 0.0 | 0.00 | 0.00 | 0.00 | 44 | 992.1 |
| 20260502181525 | 7 | 283 | 17.7 | 0.0 | 0.00 | 0.00 | 0.00 | 44 | 992.2 |
| 20260502163045 | 7 | 283 | 12.9 | 0.0 | 0.00 | 0.00 | 0.00 | 43 | 991.8 |
| 20260502161525 | 7 | 283 | 12.9 | 0.0 | 0.00 | 0.00 | 0.00 | 43 | 991.8 |
| 20260502151526 | 6 | 291 | 9.7 | 0.0 | 0.00 | 0.00 | 0.00 | 50 | 992.0 |
| 20260502123043 | 1 | 326 | 6.4 | 0.0 | 0.00 | 0.00 | 0.00 | 81 | 992.4 |
| 20260502121526 | 1 | 331 | 8.0 | 0.0 | 0.00 | 0.00 | 0.00 | 81 | 992.4 |
| 20260502114525 | 0 | 317 | 4.8 | 0.0 | 0.00 | 0.00 | 0.00 | 84 | 992.1 |
| 20260502113047 | 0 | 310 | 1.6 | 0.0 | 0.00 | 0.00 | 0.00 | 85 | 992.1 |
| 20260502111526 | 0 | 301 | 1.6 | 0.0 | 0.00 | 0.00 | 0.00 | 85 | 992.1 |
| 20260502110053 | 0 | 306 | 1.6 | 0.0 | 0.00 | 0.00 | 0.00 | 85 | 992.1 |
| 20260502104525 | 0 | 304 | 1.6 | 0.0 | 0.00 | 0.00 | 0.00 | 83 | 991.8 |
| 20260502103044 | 0 | 297 | 1.6 | 0.0 | 0.00 | 0.00 | 0.00 | 87 | 992.2 |
| 20260502101525 | 0 | 307 | 1.6 | 0.0 | 0.00 | 0.00 | 0.00 | 87 | 992.2 |
| 20260502091525 | 0 | 315 | 3.2 | 0.0 | 0.00 | 0.00 | 0.00 | 87 | 991.6 |
| 20260502071526 | 0 | 313 | 4.8 | 0.0 | 0.00 | 0.00 | 0.00 | 77 | 990.9 |
| 20260502070050 | 0 | 319 | 6.4 | 0.0 | 0.00 | 0.00 | 0.00 | 77 | 990.9 |
| 20260502064525 | 0 | 317 | 6.4 | 0.0 | 0.00 | 0.00 | 0.00 | 75 | 992.0 |
| 20260502063045 | 0 | 313 | 6.4 | 0.0 | 0.00 | 0.00 | 0.00 | 75 | 991.9 |
| 20260502061525 | 0 | 311 | 8.0 | 0.0 | 0.00 | 0.00 | 0.00 | 75 | 991.9 |
| 20260502060059 | 0 | 313 | 8.0 | 0.0 | 0.00 | 0.00 | 0.00 | 75 | 991.9 |
| 20260502054526 | 0 | 318 | 8.0 | 0.0 | 0.00 | 0.00 | 0.00 | 74 | 991.1 |
| 20260502053044 | 0 | 313 | 8.0 | 0.0 | 0.00 | 0.00 | 0.00 | 75 | 991.6 |
| 20260502051525 | 0 | 315 | 9.7 | 0.0 | 0.00 | 0.00 | 0.00 | 75 | 991.6 |
| 20260502050053 | 1 | 322 | 9.7 | 0.0 | 0.00 | 0.00 | 0.00 | 75 | 991.6 |
| 20260502044526 | 1 | 322 | 9.7 | 0.0 | 0.00 | 0.00 | 0.00 | 69 | 991.1 |
| 20260502043043 | 1 | 326 | 8.0 | 0.0 | 0.00 | 0.00 | 0.00 | 73 | 991.3 |
| 20260502041525 | 1 | 328 | 9.7 | 0.0 | 0.00 | 0.00 | 0.00 | 73 | 991.2 |
| 20260502040052 | 1 | 324 | 11.3 | 0.0 | 0.00 | 0.00 | 0.00 | 73 | 991.2 |
| 20260502034525 | 1 | 321 | 11.3 | 0.0 | 0.00 | 0.00 | 0.00 | 65 | 990.6 |
| 20260502033045 | 1 | 331 | 8.0 | 0.0 | 0.00 | 0.00 | 0.00 | 69 | 990.1 |
| 20260502031525 | 1 | 322 | 9.7 | 0.0 | 0.00 | 0.00 | 0.00 | 69 | 990.1 |
| 20260502030052 | 1 | 322 | 9.7 | 0.0 | 0.00 | 0.00 | 0.00 | 69 | 990.1 |
| 20260502024525 | 2 | 317 | 11.3 | 0.0 | 0.00 | 0.00 | 0.00 | 62 | 989.6 |
| 20260502023043 | 2 | 315 | 12.9 | 0.0 | 0.00 | 0.00 | 0.00 | 67 | 990.6 |
| 20260502021525 | 2 | 307 | 12.9 | 0.0 | 0.00 | 0.00 | 0.00 | 67 | 990.6 |
| 20260502020049 | 2 | 301 | 14.5 | 0.0 | 0.00 | 0.00 | 0.00 | 67 | 990.6 |
| 20260502014524 | 2 | 294 | 14.5 | 0.0 | 0.00 | 0.00 | 0.00 | 63 | 990.8 |
| 20260502013041 | 3 | 289 | 14.5 | 0.0 | 0.00 | 0.00 | 0.00 | 63 | 990.8 |
| 20260502011524 | 2 | 284 | 12.9 | 0.0 | 0.00 | 0.00 | 0.00 | 63 | 990.7 |